Location: New Canada
(47.1017°N, 68.5042°W)
Time: 11:32:23
(UTC+00:00)

DX 1 - Visible Passes

Search period start: 28 March 2023 00:00
Search period end: 07 April 2023 00:00
Orbit: 614 x 627 km, 98.4° (Epoch: 28 March)

Date Brightness Start Highest point End Pass type
(mag) Time Alt. Az. Time Alt. Az. Time Alt. Az.
28 Mar ? 04:06:34 10° NNW 04:06:48 11° NNW 04:06:48 11° NNW visible
29 Mar ? 02:47:20 10° NNE 02:47:26 10° NNE 02:47:26 10° NNE visible
29 Mar ? 04:24:36 10° NNW 04:24:37 10° NNW 04:24:37 10° NNW visible
30 Mar ? 03:04:48 10° NNE 03:05:15 13° NNE 03:05:15 13° NNE visible
31 Mar ? 03:22:21 10° N 03:23:02 14° N 03:23:02 14° N visible
01 Apr ? 03:40:00 10° N 03:40:51 15° N 03:40:51 15° N visible
02 Apr ? 03:57:43 10° N 03:58:39 15° NNW 03:58:39 15° NNW visible
03 Apr ? 02:38:44 10° NNE 02:39:15 13° NNE 02:39:15 13° NNE visible
03 Apr ? 04:15:35 10° NNW 04:16:25 13° NNW 04:16:25 13° NNW visible
04 Apr ? 02:56:06 10° NNE 02:57:02 16° NNE 02:57:02 16° NNE visible
04 Apr ? 04:33:43 10° NNW 04:34:12 11° NNW 04:34:12 11° NNW visible
05 Apr ? 03:13:34 10° N 03:14:48 19° N 03:14:48 19° N visible
06 Apr ? 03:31:08 10° N 03:32:34 20° N 03:32:34 20° N visible
